Time,TemperatureF,DewpointF,PressureIn,WindDirection,WindDirectionDegrees,WindSpeedMPH,WindSpeedGustMPH,Humidity,HourlyPrecipIn,Conditions,Clouds,dailyrainin,SolarRadiationWatts/m^2,SoftwareType,DateUTC
2013-03-15 00:01:00,18.0,3.3,29.90,North,0,2.0,2.0,52,0.00,,,0.01,0,Wunderground v.1.15,2013-03-15 04:01:00,
2013-03-15 00:03:00,18.0,4.1,29.90,North,0,1.0,2.0,54,0.00,,,0.00,0,Wunderground v.1.15,2013-03-15 04:03:00,
2013-03-15 00:06:00,18.0,3.7,29.90,NNW,346,1.0,2.0,53,0.00,,,0.00,0,Wunderground v.1.15,2013-03-15 04:06:00,
2013-03-15 00:12:00,17.8,3.1,29.90,WNW,290,1.0,2.0,52,0.00,,,0.00,0,Wunderground v.1.15,2013-03-15 04:12:00,
2013-03-15 00:17:00,17.7,3.4,29.90,SE,143,1.0,2.0,53,0.00,,,0.00,0,Wunderground v.1.15,2013-03-15 04:17:00,
2013-03-15 00:23:00,17.3,2.2,29.90,SE,143,1.0,1.0,51,0.00,,,0.00,0,Wunderground v.1.15,2013-03-15 04:23:00,
2013-03-15 00:28:00,17.2,2.6,29.90,SE,143,0.0,2.0,52,0.00,,,0.00,0,Wunderground v.1.15,2013-03-15 04:28:00,
2013-03-15 00:34:00,17.2,3.0,29.90,SW,222,1.0,6.0,53,0.00,,,0.00,0,Wunderground v.1.15,2013-03-15 04:34:00,
2013-03-15 00:39:00,17.0,2.8,29.90,North,8,1.0,6.0,53,0.00,,,0.00,0,Wunderground v.1.15,2013-03-15 04:39:00,
2013-03-15 00:46:00,16.9,2.7,29.90,SSE,157,0.0,3.0,53,0.00,,,0.00,0,Wunderground v.1.15,2013-03-15 04:46:00,
2013-03-15 00:51:00,16.7,2.5,29.90,SSE,157,1.0,1.0,53,0.00,,,0.00,0,Wunderground v.1.15,2013-03-15 04:51:00,
2013-03-15 00:56:00,16.7,2.1,29.90,SSE,157,0.0,1.0,52,0.00,,,0.00,0,Wunderground v.1.15,2013-03-15 04:56:00,
2013-03-15 01:02:00,16.7,2.1,29.90,SSE,157,0.0,0.0,52,0.00,,,0.00,0,Wunderground v.1.15,2013-03-15 05:02:00,
2013-03-15 01:07:00,16.5,1.9,29.90,SSE,157,0.0,0.0,52,0.00,,,0.00,0,Wunderground v.1.15,2013-03-15 05:07:00,
2013-03-15 01:12:00,16.4,2.2,29.90,SSE,157,0.0,0.0,53,0.00,,,0.00,0,Wunderground v.1.15,2013-03-15 05:12:00,
2013-03-15 01:18:00,16.2,2.4,29.90,SSE,157,0.0,0.0,54,0.00,,,0.00,0,Wunderground v.1.15,2013-03-15 05:18:00,
2013-03-15 01:23:00,16.1,2.7,29.90,SSE,157,0.0,0.0,55,0.00,,,0.00,0,Wunderground v.1.15,2013-03-15 05:23:00,
2013-03-15 01:29:00,16.1,2.7,29.90,SSE,157,0.0,0.0,55,0.00,,,0.00,0,Wunderground v.1.15,2013-03-15 05:29:00,
2013-03-15 01:34:00,16.1,3.1,29.90,SSE,157,0.0,0.0,56,0.00,,,0.00,0,Wunderground v.1.15,2013-03-15 05:34:00,
2013-03-15 01:41:00,16.1,3.1,29.90,SSE,157,0.0,0.0,56,0.00,,,0.00,0,Wunderground v.1.15,2013-03-15 05:41:00,
2013-03-15 01:46:00,16.1,2.7,29.91,SSE,157,0.0,1.0,55,0.00,,,0.00,0,Wunderground v.1.15,2013-03-15 05:46:00,
2013-03-15 01:51:00,16.2,2.8,29.91,SSE,157,0.0,2.0,55,0.00,,,0.00,0,Wunderground v.1.15,2013-03-15 05:51:00,
2013-03-15 01:57:00,16.1,2.7,29.91,SSE,157,0.0,2.0,55,0.00,,,0.00,0,Wunderground v.1.15,2013-03-15 05:57:00,
2013-03-15 02:03:00,16.1,2.7,29.91,SSE,150,0.0,0.0,55,0.00,,,0.00,0,Wunderground v.1.15,2013-03-15 06:03:00,
2013-03-15 02:09:00,16.1,2.4,29.91,SSE,150,0.0,0.0,54,0.00,,,0.00,0,Wunderground v.1.15,2013-03-15 06:09:00,
2013-03-15 02:16:00,16.1,2.7,29.91,SSE,150,0.0,0.0,55,0.00,,,0.00,0,Wunderground v.1.15,2013-03-15 06:16:00,
2013-03-15 02:21:00,16.1,3.1,29.91,SSE,150,0.0,0.0,56,0.00,,,0.00,0,Wunderground v.1.15,2013-03-15 06:21:00,
2013-03-15 02:26:00,16.1,3.1,29.91,SSE,150,0.0,0.0,56,0.00,,,0.00,0,Wunderground v.1.15,2013-03-15 06:26:00,
2013-03-15 02:31:00,16.1,3.5,29.91,SSE,150,0.0,0.0,57,0.00,,,0.00,0,Wunderground v.1.15,2013-03-15 06:31:00,
2013-03-15 02:37:00,16.1,3.5,29.91,SSE,150,0.0,0.0,57,0.00,,,0.00,0,Wunderground v.1.15,2013-03-15 06:37:00,
2013-03-15 02:42:00,16.2,3.6,29.91,SSE,150,0.0,0.0,57,0.00,,,0.00,0,Wunderground v.1.15,2013-03-15 06:42:00,
2013-03-15 02:48:00,16.5,3.9,29.90,SSE,150,0.0,0.0,57,0.00,,,0.00,0,Wunderground v.1.15,2013-03-15 06:48:00,
2013-03-15 02:53:00,16.5,3.9,29.90,SSE,150,0.0,0.0,57,0.00,,,0.00,0,Wunderground v.1.15,2013-03-15 06:53:00,
2013-03-15 02:59:00,16.7,4.1,29.90,SSE,151,0.0,1.0,57,0.00,,,0.00,0,Wunderground v.1.15,2013-03-15 06:59:00,
2013-03-15 03:06:00,16.9,4.3,29.90,SSE,151,0.0,0.0,57,0.00,,,0.00,0,Wunderground v.1.15,2013-03-15 07:06:00,
2013-03-15 03:12:00,16.9,4.3,29.90,SSE,152,0.0,4.0,57,0.00,,,0.00,0,Wunderground v.1.15,2013-03-15 07:12:00,
2013-03-15 03:18:00,17.0,4.7,29.90,SSE,152,0.0,4.0,58,0.00,,,0.00,0,Wunderground v.1.15,2013-03-15 07:18:00,
2013-03-15 03:24:00,17.2,4.9,29.90,SSE,152,0.0,0.0,58,0.00,,,0.00,0,Wunderground v.1.15,2013-03-15 07:24:00,
2013-03-15 03:29:00,17.2,4.9,29.90,SSE,153,0.0,1.0,58,0.00,,,0.00,0,Wunderground v.1.15,2013-03-15 07:29:00,
2013-03-15 03:36:00,17.2,4.9,29.89,SSE,154,0.0,0.0,58,0.00,,,0.00,0,Wunderground v.1.15,2013-03-15 07:36:00,
2013-03-15 03:41:00,17.3,5.4,29.89,SE,138,0.0,1.0,59,0.00,,,0.00,0,Wunderground v.1.15,2013-03-15 07:41:00,
2013-03-15 03:46:00,17.2,5.7,29.89,SE,138,0.0,1.0,60,0.00,,,0.00,0,Wunderground v.1.15,2013-03-15 07:46:00,
2013-03-15 03:51:00,17.2,5.3,29.89,SE,138,0.0,0.0,59,0.00,,,0.00,0,Wunderground v.1.15,2013-03-15 07:51:00,
2013-03-15 03:57:00,17.0,5.5,29.89,SE,138,0.0,0.0,60,0.00,,,0.00,0,Wunderground v.1.15,2013-03-15 07:57:00,
2013-03-15 04:02:00,17.0,5.5,29.89,SE,138,0.0,0.0,60,0.00,,,0.00,0,Wunderground v.1.15,2013-03-15 08:02:00,
2013-03-15 04:08:00,16.9,5.0,29.89,SE,138,0.0,1.0,59,0.00,,,0.00,0,Wunderground v.1.15,2013-03-15 08:08:00,
2013-03-15 04:14:00,16.7,4.8,29.89,SE,138,0.0,0.0,59,0.00,,,0.00,0,Wunderground v.1.15,2013-03-15 08:14:00,
2013-03-15 04:21:00,16.7,4.8,29.89,SE,138,0.0,0.0,59,0.00,,,0.00,0,Wunderground v.1.15,2013-03-15 08:21:00,
2013-03-15 04:26:00,16.5,5.0,29.89,SE,138,0.0,0.0,60,0.00,,,0.00,0,Wunderground v.1.15,2013-03-15 08:26:00,
2013-03-15 04:31:00,16.5,5.0,29.89,SE,138,0.0,0.0,60,0.00,,,0.00,0,Wunderground v.1.15,2013-03-15 08:31:00,
2013-03-15 04:36:00,16.5,5.0,29.89,SE,138,0.0,0.0,60,0.00,,,0.00,0,Wunderground v.1.15,2013-03-15 08:36:00,
2013-03-15 04:42:00,16.7,5.2,29.89,SE,138,0.0,0.0,60,0.00,,,0.00,0,Wunderground v.1.15,2013-03-15 08:42:00,
2013-03-15 04:47:00,16.7,5.2,29.89,East,101,0.0,1.0,60,0.00,,,0.00,0,Wunderground v.1.15,2013-03-15 08:47:00,
2013-03-15 04:53:00,16.9,5.4,29.89,East,101,0.0,1.0,60,0.00,,,0.00,0,Wunderground v.1.15,2013-03-15 08:53:00,
2013-03-15 04:58:00,16.9,5.4,29.89,East,101,0.0,2.0,60,0.00,,,0.00,0,Wunderground v.1.15,2013-03-15 08:58:00,
2013-03-15 05:04:00,16.9,5.0,29.89,East,101,0.0,0.0,59,0.00,,,0.00,0,Wunderground v.1.15,2013-03-15 09:04:00,
2013-03-15 05:09:00,16.7,4.8,29.89,East,101,0.0,0.0,59,0.00,,,0.00,0,Wunderground v.1.15,2013-03-15 09:09:00,
2013-03-15 05:16:00,16.5,4.7,29.88,East,101,0.0,0.0,59,0.00,,,0.00,0,Wunderground v.1.15,2013-03-15 09:16:00,
2013-03-15 05:21:00,16.4,4.9,29.88,East,101,0.0,0.0,60,0.00,,,0.00,0,Wunderground v.1.15,2013-03-15 09:21:00,
2013-03-15 05:26:00,16.2,4.7,29.88,East,101,0.0,0.0,60,0.00,,,0.00,0,Wunderground v.1.15,2013-03-15 09:26:00,
2013-03-15 05:31:00,16.1,4.6,29.88,East,101,0.0,0.0,60,0.00,,,0.00,0,Wunderground v.1.15,2013-03-15 09:31:00,
2013-03-15 05:36:00,15.9,4.8,29.88,East,101,0.0,0.0,61,0.00,,,0.00,0,Wunderground v.1.15,2013-03-15 09:36:00,
2013-03-15 05:41:00,15.6,4.5,29.88,East,101,0.0,0.0,61,0.00,,,0.00,0,Wunderground v.1.15,2013-03-15 09:41:00,
2013-03-15 05:46:00,15.4,4.3,29.88,East,101,0.0,0.0,61,0.00,,,0.00,0,Wunderground v.1.15,2013-03-15 09:46:00,
2013-03-15 05:52:00,15.1,4.8,29.88,East,101,0.0,0.0,63,0.00,,,0.00,0,Wunderground v.1.15,2013-03-15 09:52:00,
2013-03-15 05:57:00,14.9,4.9,29.88,East,101,0.0,0.0,64,0.00,,,0.00,0,Wunderground v.1.15,2013-03-15 09:57:00,
2013-03-15 06:03:00,14.8,4.8,29.88,East,101,0.0,0.0,64,0.00,,,0.00,0,Wunderground v.1.15,2013-03-15 10:03:00,
2013-03-15 06:08:00,14.6,5.0,29.88,East,101,0.0,0.0,65,0.00,,,0.00,0,Wunderground v.1.15,2013-03-15 10:08:00,
2013-03-15 06:13:00,14.4,4.8,29.88,East,101,0.0,0.0,65,0.00,,,0.00,0,Wunderground v.1.15,2013-03-15 10:13:00,
2013-03-15 06:19:00,14.1,4.8,29.88,East,101,0.0,0.0,66,0.00,,,0.00,0,Wunderground v.1.15,2013-03-15 10:19:00,
2013-03-15 06:26:00,14.0,4.7,29.88,East,101,0.0,0.0,66,0.00,,,0.00,0,Wunderground v.1.15,2013-03-15 10:26:00,
2013-03-15 06:31:00,14.0,5.1,29.88,East,101,0.0,0.0,67,0.00,,,0.00,0,Wunderground v.1.15,2013-03-15 10:31:00,
2013-03-15 06:37:00,14.1,5.8,29.88,East,101,0.0,0.0,69,0.00,,,0.00,0,Wunderground v.1.15,2013-03-15 10:37:00,
2013-03-15 06:42:00,14.3,6.3,29.88,East,101,0.0,0.0,70,0.00,,,0.00,0,Wunderground v.1.15,2013-03-15 10:42:00,
2013-03-15 06:48:00,14.1,6.1,29.87,East,101,0.0,0.0,70,0.00,,,0.00,0,Wunderground v.1.15,2013-03-15 10:48:00,
2013-03-15 06:53:00,14.1,6.4,29.87,East,101,0.0,0.0,71,0.00,,,0.00,0,Wunderground v.1.15,2013-03-15 10:53:00,
2013-03-15 06:58:00,14.1,6.4,29.87,East,101,0.0,1.0,71,0.00,,,0.00,0,Wunderground v.1.15,2013-03-15 10:58:00,
2013-03-15 07:04:00,14.3,6.3,29.86,East,101,0.0,2.0,70,0.00,,,0.00,0,Wunderground v.1.15,2013-03-15 11:04:00,
2013-03-15 07:11:00,14.3,6.3,29.86,SW,236,0.0,2.0,70,0.00,,,0.00,5,Wunderground v.1.15,2013-03-15 11:11:00,
2013-03-15 07:16:00,14.4,6.4,29.86,WSW,248,1.0,3.0,70,0.00,,,0.00,7,Wunderground v.1.15,2013-03-15 11:16:00,
2013-03-15 07:22:00,14.6,6.3,29.86,WSW,255,2.0,4.0,69,0.00,,,0.00,9,Wunderground v.1.15,2013-03-15 11:22:00,
2013-03-15 07:28:00,14.6,6.3,29.86,West,262,3.0,4.0,69,0.00,,,0.00,11,Wunderground v.1.15,2013-03-15 11:28:00,
2013-03-15 07:33:00,14.6,6.3,29.86,West,264,3.0,4.0,69,0.00,,,0.00,14,Wunderground v.1.15,2013-03-15 11:33:00,
2013-03-15 07:39:00,14.8,6.1,29.86,West,264,2.0,4.0,68,0.00,,,0.00,16,Wunderground v.1.15,2013-03-15 11:39:00,
2013-03-15 07:46:00,14.8,6.1,29.85,West,267,2.0,3.0,68,0.00,,,0.00,21,Wunderground v.1.15,2013-03-15 11:46:00,
2013-03-15 07:51:00,14.8,5.8,29.85,WSW,257,3.0,3.0,67,0.00,,,0.00,28,Wunderground v.1.15,2013-03-15 11:51:00,
2013-03-15 07:57:00,14.8,5.8,29.85,West,275,3.0,3.0,67,0.00,,,0.00,46,Wunderground v.1.15,2013-03-15 11:57:00,
2013-03-15 08:02:00,14.9,5.9,29.84,West,278,3.0,4.0,67,0.00,,,0.00,56,Wunderground v.1.15,2013-03-15 12:02:00,
2013-03-15 08:08:00,15.2,6.2,29.84,WSW,248,3.0,4.0,67,0.00,,,0.00,76,Wunderground v.1.15,2013-03-15 12:08:00,
2013-03-15 08:13:00,15.6,6.6,29.84,West,278,3.0,3.0,67,0.00,,,0.00,102,Wunderground v.1.15,2013-03-15 12:13:00,
2013-03-15 08:18:00,16.1,6.7,29.84,West,271,3.0,5.0,66,0.00,,,0.00,130,Wunderground v.1.15,2013-03-15 12:18:00,
2013-03-15 08:24:00,16.7,7.3,29.84,West,271,1.0,2.0,66,0.00,,,0.00,132,Wunderground v.1.15,2013-03-15 12:24:00,
2013-03-15 08:31:00,17.3,7.5,29.84,West,271,0.0,0.0,65,0.00,,,0.00,267,Wunderground v.1.15,2013-03-15 12:31:00,
2013-03-15 08:36:00,18.0,7.2,29.84,West,281,0.0,2.0,62,0.00,,,0.00,283,Wunderground v.1.15,2013-03-15 12:36:00,
2013-03-15 08:41:00,18.8,7.9,29.84,West,281,0.0,0.0,62,0.00,,,0.00,193,Wunderground v.1.15,2013-03-15 12:41:00,
2013-03-15 08:47:00,19.2,7.6,29.83,West,281,0.0,0.0,60,0.00,,,0.00,199,Wunderground v.1.15,2013-03-15 12:47:00,
2013-03-15 08:52:00,19.7,7.7,29.83,WNW,283,0.0,0.0,59,0.00,,,0.00,185,Wunderground v.1.15,2013-03-15 12:52:00,
2013-03-15 08:57:00,19.9,7.9,29.83,WNW,283,0.0,0.0,59,0.00,,,0.00,214,Wunderground v.1.15,2013-03-15 12:57:00,
2013-03-15 09:03:00,20.3,8.2,29.82,WNW,283,0.0,0.0,59,0.00,,,0.00,309,Wunderground v.1.15,2013-03-15 13:03:00,
2013-03-15 09:09:00,20.8,8.7,29.82,WNW,283,0.0,0.0,59,0.00,,,0.00,234,Wunderground v.1.15,2013-03-15 13:09:00,
2013-03-15 09:14:00,21.1,8.2,29.82,WNW,283,0.0,0.0,57,0.00,,,0.00,274,Wunderground v.1.15,2013-03-15 13:14:00,
2013-03-15 09:21:00,21.8,8.1,29.81,WNW,283,0.0,0.0,55,0.00,,,0.00,309,Wunderground v.1.15,2013-03-15 13:21:00,
2013-03-15 09:26:00,22.1,8.0,29.81,WNW,283,0.0,0.0,54,0.00,,,0.00,221,Wunderground v.1.15,2013-03-15 13:26:00,
2013-03-15 09:31:00,22.4,8.7,29.81,North,0,0.0,0.0,55,0.00,,,0.00,364,Wunderground v.1.15,2013-03-15 13:31:00,
2013-03-15 09:37:00,22.9,7.9,29.81,North,0,0.0,0.0,52,0.00,,,0.00,229,Wunderground v.1.15,2013-03-15 13:37:00,
2013-03-15 09:42:00,23.0,7.5,29.81,North,0,0.0,2.0,51,0.00,,,0.00,236,Wunderground v.1.15,2013-03-15 13:42:00,
2013-03-15 09:47:00,23.0,8.8,29.80,North,0,0.0,2.0,54,0.00,,,0.00,276,Wunderground v.1.15,2013-03-15 13:47:00,
2013-03-15 09:53:00,23.3,9.1,29.80,North,0,0.0,0.0,54,0.00,,,0.00,221,Wunderground v.1.15,2013-03-15 13:53:00,
2013-03-15 09:59:00,23.6,8.9,29.80,NNE,19,0.0,1.0,53,0.00,,,0.00,320,Wunderground v.1.15,2013-03-15 13:59:00,
2013-03-15 10:04:00,23.9,8.8,29.80,NNE,19,1.0,1.0,52,0.00,,,0.00,276,Wunderground v.1.15,2013-03-15 14:04:00,
2013-03-15 10:11:00,24.1,8.1,29.80,SE,141,1.0,1.0,50,0.00,,,0.00,318,Wunderground v.1.15,2013-03-15 14:11:00,
2013-03-15 10:16:00,23.9,8.4,29.79,North,6,1.0,2.0,51,0.00,,,0.00,401,Wunderground v.1.15,2013-03-15 14:16:00,
2013-03-15 10:22:00,24.1,8.6,29.79,ENE,70,1.0,1.0,51,0.00,,,0.00,301,Wunderground v.1.15,2013-03-15 14:22:00,
2013-03-15 10:27:00,24.2,8.2,29.79,ENE,70,1.0,2.0,50,0.00,,,0.00,316,Wunderground v.1.15,2013-03-15 14:27:00,
2013-03-15 10:32:00,24.4,8.8,29.78,ENE,70,1.0,1.0,51,0.00,,,0.00,364,Wunderground v.1.15,2013-03-15 14:32:00,
2013-03-15 10:38:00,24.8,9.2,29.78,ENE,70,0.0,1.0,51,0.00,,,0.00,345,Wunderground v.1.15,2013-03-15 14:38:00,
2013-03-15 10:44:00,25.1,8.6,29.78,ENE,67,0.0,1.0,49,0.00,,,0.00,431,Wunderground v.1.15,2013-03-15 14:44:00,
2013-03-15 10:51:00,25.4,8.4,29.76,ENE,73,1.0,2.0,48,0.00,,,0.00,360,Wunderground v.1.15,2013-03-15 14:51:00,
2013-03-15 10:57:00,25.8,9.2,29.76,ENE,77,1.0,2.0,49,0.00,,,0.00,538,Wunderground v.1.15,2013-03-15 14:57:00,
2013-03-15 11:02:00,26.3,9.7,29.76,East,96,1.0,3.0,49,0.00,,,0.00,476,Wunderground v.1.15,2013-03-15 15:02:00,
2013-03-15 11:08:00,26.6,9.1,29.76,East,95,1.0,3.0,47,0.00,,,0.00,577,Wunderground v.1.15,2013-03-15 15:08:00,
2013-03-15 11:14:00,27.3,9.7,29.76,NE,42,1.0,5.0,47,0.00,,,0.00,543,Wunderground v.1.15,2013-03-15 15:14:00,
2013-03-15 11:21:00,27.6,10.0,29.74,ENE,65,2.0,4.0,47,0.00,,,0.00,605,Wunderground v.1.15,2013-03-15 15:21:00,
2013-03-15 11:26:00,27.9,9.8,29.74,NE,39,1.0,4.0,46,0.00,,,0.00,571,Wunderground v.1.15,2013-03-15 15:26:00,
2013-03-15 11:32:00,27.9,8.3,29.73,East,83,2.0,2.0,43,0.00,,,0.00,629,Wunderground v.1.15,2013-03-15 15:32:00,
2013-03-15 11:37:00,28.2,9.5,29.73,SE,124,2.0,3.0,45,0.00,,,0.00,631,Wunderground v.1.15,2013-03-15 15:37:00,
2013-03-15 11:43:00,28.4,7.7,29.73,East,99,1.0,3.0,41,0.00,,,0.00,675,Wunderground v.1.15,2013-03-15 15:43:00,
2013-03-15 11:49:00,28.4,9.7,29.73,NNE,13,2.0,5.0,45,0.00,,,0.00,735,Wunderground v.1.15,2013-03-15 15:49:00,
2013-03-15 11:56:00,28.5,9.8,29.73,ESE,104,1.0,2.0,45,0.00,,,0.00,582,Wunderground v.1.15,2013-03-15 15:56:00,
2013-03-15 12:01:00,28.5,8.8,29.71,East,91,2.0,4.0,43,0.00,,,0.00,462,Wunderground v.1.15,2013-03-15 16:01:00,
2013-03-15 12:06:00,28.2,10.5,29.71,ENE,68,2.0,4.0,47,0.00,,,0.00,506,Wunderground v.1.15,2013-03-15 16:06:00,
2013-03-15 12:12:00,29.0,12.2,29.71,ENE,75,1.0,4.0,49,0.00,,,0.00,856,Wunderground v.1.15,2013-03-15 16:12:00,
2013-03-15 12:18:00,29.4,9.1,29.70,East,84,2.0,4.0,42,0.00,,,0.00,469,Wunderground v.1.15,2013-03-15 16:18:00,
2013-03-15 12:24:00,29.1,8.8,29.70,ENE,61,2.0,4.0,42,0.00,,,0.00,503,Wunderground v.1.15,2013-03-15 16:24:00,
2013-03-15 12:31:00,28.8,9.1,29.69,ESE,120,2.0,2.0,43,0.00,,,0.00,570,Wunderground v.1.15,2013-03-15 16:31:00,
2013-03-15 12:36:00,29.4,12.1,29.69,ENE,65,2.0,4.0,48,0.00,,,0.00,638,Wunderground v.1.15,2013-03-15 16:36:00,
2013-03-15 12:42:00,30.0,12.2,29.69,ESE,111,2.0,5.0,47,0.00,,,0.00,571,Wunderground v.1.15,2013-03-15 16:42:00,
2013-03-15 12:47:00,30.4,12.1,29.68,East,95,2.0,5.0,46,0.00,,,0.00,459,Wunderground v.1.15,2013-03-15 16:47:00,
2013-03-15 12:53:00,30.1,10.8,29.68,ENE,67,1.0,4.0,44,0.00,,,0.00,712,Wunderground v.1.15,2013-03-15 16:53:00,
2013-03-15 12:58:00,30.9,11.0,29.68,ENE,61,1.0,4.0,43,0.00,,,0.00,793,Wunderground v.1.15,2013-03-15 16:58:00,
2013-03-15 13:03:00,31.2,11.8,29.66,NNE,29,1.0,2.0,44,0.00,,,0.00,905,Wunderground v.1.15,2013-03-15 17:03:00,
2013-03-15 13:09:00,31.8,11.8,29.66,ENE,76,1.0,2.0,43,0.00,,,0.00,805,Wunderground v.1.15,2013-03-15 17:09:00,
2013-03-15 13:16:00,32.4,13.4,29.65,East,83,1.0,2.0,45,0.00,,,0.00,789,Wunderground v.1.15,2013-03-15 17:16:00,
2013-03-15 13:21:00,32.7,12.1,29.65,North,0,2.0,2.0,42,0.00,,,0.00,751,Wunderground v.1.15,2013-03-15 17:21:00,
2013-03-15 13:26:00,32.9,12.3,29.65,ENE,76,2.0,3.0,42,0.00,,,0.00,343,Wunderground v.1.15,2013-03-15 17:26:00,
2013-03-15 13:32:00,32.5,11.9,29.65,ENE,64,1.0,2.0,42,0.00,,,0.00,387,Wunderground v.1.15,2013-03-15 17:32:00,
2013-03-15 13:37:00,32.4,11.8,29.65,East,89,1.0,3.0,42,0.00,,,0.00,749,Wunderground v.1.15,2013-03-15 17:37:00,
2013-03-15 13:42:00,33.2,12.6,29.65,East,101,2.0,3.0,42,0.00,,,0.00,752,Wunderground v.1.15,2013-03-15 17:42:00,
2013-03-15 13:48:00,32.9,12.8,29.63,North,0,2.0,3.0,43,0.00,,,0.00,643,Wunderground v.1.15,2013-03-15 17:48:00,
2013-03-15 13:53:00,33.2,13.1,29.63,ENE,60,2.0,3.0,43,0.00,,,0.00,654,Wunderground v.1.15,2013-03-15 17:53:00,
2013-03-15 13:59:00,32.9,12.3,29.63,NE,43,2.0,3.0,42,0.00,,,0.00,578,Wunderground v.1.15,2013-03-15 17:59:00,
2013-03-15 14:06:00,33.1,13.5,29.63,NNE,16,2.0,5.0,44,0.00,,,0.00,578,Wunderground v.1.15,2013-03-15 18:06:00,
2013-03-15 14:11:00,33.4,15.3,29.63,ESE,103,2.0,2.0,47,0.00,,,0.00,485,Wunderground v.1.15,2013-03-15 18:11:00,
2013-03-15 14:17:00,34.0,15.9,29.61,East,95,1.0,3.0,47,0.00,,,0.00,415,Wunderground v.1.15,2013-03-15 18:17:00,
2013-03-15 14:23:00,33.4,12.2,29.61,ENE,60,2.0,6.0,41,0.00,,,0.00,366,Wunderground v.1.15,2013-03-15 18:23:00,
2013-03-15 14:29:00,33.5,13.9,29.61,East,84,2.0,6.0,44,0.00,,,0.00,387,Wunderground v.1.15,2013-03-15 18:29:00,
2013-03-15 14:34:00,33.4,13.3,29.60,ENE,66,2.0,3.0,43,0.00,,,0.00,294,Wunderground v.1.15,2013-03-15 18:34:00,
2013-03-15 14:41:00,33.2,15.1,29.60,SSE,151,2.0,2.0,47,0.00,,,0.00,267,Wunderground v.1.15,2013-03-15 18:41:00,
2013-03-15 14:46:00,32.9,13.9,29.60,NE,49,2.0,4.0,45,0.00,,,0.00,255,Wunderground v.1.15,2013-03-15 18:46:00,
2013-03-15 14:52:00,32.8,14.8,29.60,ENE,65,2.0,3.0,47,0.00,,,0.00,285,Wunderground v.1.15,2013-03-15 18:52:00,
2013-03-15 14:58:00,32.8,15.2,29.60,ESE,113,2.0,6.0,48,0.00,,,0.00,239,Wunderground v.1.15,2013-03-15 18:58:00,
2013-03-15 15:04:00,32.8,14.3,29.59,ENE,75,2.0,5.0,46,0.00,,,0.00,255,Wunderground v.1.15,2013-03-15 19:04:00,
2013-03-15 15:09:00,32.8,14.8,29.59,ENE,68,2.0,5.0,47,0.00,,,0.00,220,Wunderground v.1.15,2013-03-15 19:09:00,
2013-03-15 15:14:00,32.9,15.3,29.59,ENE,77,1.0,2.0,48,0.00,,,0.00,258,Wunderground v.1.15,2013-03-15 19:14:00,
2013-03-15 15:21:00,33.2,16.5,29.58,NNE,19,1.0,2.0,50,0.00,,,0.00,366,Wunderground v.1.15,2013-03-15 19:21:00,
2013-03-15 15:26:00,33.7,17.5,29.58,WSW,251,2.0,4.0,51,0.00,,,0.00,362,Wunderground v.1.15,2013-03-15 19:26:00,
2013-03-15 15:32:00,33.8,17.6,29.58,NE,53,2.0,3.0,51,0.00,,,0.00,287,Wunderground v.1.15,2013-03-15 19:32:00,
2013-03-15 15:38:00,33.8,18.9,29.58,ENE,60,2.0,3.0,54,0.00,,,0.00,237,Wunderground v.1.15,2013-03-15 19:38:00,
2013-03-15 15:44:00,33.5,19.0,29.58,SE,127,3.0,4.0,55,0.00,,,0.00,197,Wunderground v.1.15,2013-03-15 19:44:00,
2013-03-15 15:51:00,33.4,19.4,29.57,ESE,115,2.0,2.0,56,0.00,,,0.00,236,Wunderground v.1.15,2013-03-15 19:51:00,
2013-03-15 15:56:00,33.2,19.6,29.57,East,83,2.0,2.0,57,0.00,,,0.00,271,Wunderground v.1.15,2013-03-15 19:56:00,
2013-03-15 16:02:00,33.4,21.0,29.57,East,94,1.0,2.0,60,0.00,,,0.00,216,Wunderground v.1.15,2013-03-15 20:02:00,
2013-03-15 16:08:00,33.4,21.0,29.57,NE,51,1.0,4.0,60,0.00,,,0.00,172,Wunderground v.1.15,2013-03-15 20:08:00,
2013-03-15 16:13:00,33.1,21.1,29.57,East,94,2.0,5.0,61,0.00,,,0.00,185,Wunderground v.1.15,2013-03-15 20:13:00,
2013-03-15 16:18:00,32.7,21.5,29.57,East,101,3.0,5.0,63,0.00,,,0.00,128,Wunderground v.1.15,2013-03-15 20:18:00,
2013-03-15 16:24:00,32.4,21.9,29.57,ENE,75,2.0,9.0,65,0.00,,,0.00,163,Wunderground v.1.15,2013-03-15 20:24:00,
2013-03-15 16:29:00,32.2,22.5,29.57,East,82,2.0,9.0,67,0.00,,,0.00,199,Wunderground v.1.15,2013-03-15 20:29:00,
2013-03-15 16:36:00,31.9,22.5,29.57,ENE,70,3.0,7.0,68,0.00,,,0.00,246,Wunderground v.1.15,2013-03-15 20:36:00,
2013-03-15 16:41:00,32.1,23.4,29.57,SE,133,3.0,3.0,70,0.00,,,0.00,234,Wunderground v.1.15,2013-03-15 20:41:00,
2013-03-15 16:46:00,32.4,24.0,29.57,ESE,104,2.0,3.0,71,0.00,,,0.00,243,Wunderground v.1.15,2013-03-15 20:46:00,
2013-03-15 16:51:00,32.4,24.0,29.57,NNE,27,2.0,2.0,71,0.00,,,0.00,214,Wunderground v.1.15,2013-03-15 20:51:00,
2013-03-15 16:57:00,32.5,24.5,29.57,ESE,108,1.0,3.0,72,0.00,,,0.00,214,Wunderground v.1.15,2013-03-15 20:57:00,
2013-03-15 17:02:00,32.7,24.7,29.57,NNE,23,1.0,2.0,72,0.00,,,0.00,181,Wunderground v.1.15,2013-03-15 21:02:00,
2013-03-15 17:07:00,32.4,24.7,29.57,East,90,1.0,2.0,73,0.00,,,0.00,109,Wunderground v.1.15,2013-03-15 21:07:00,
2013-03-15 17:13:00,31.9,24.6,29.57,NNE,19,2.0,6.0,74,0.00,,,0.00,83,Wunderground v.1.15,2013-03-15 21:13:00,
2013-03-15 17:19:00,31.5,25.1,29.57,ENE,72,2.0,6.0,77,0.00,,,0.00,179,Wunderground v.1.15,2013-03-15 21:19:00,
2013-03-15 17:26:00,31.3,25.5,29.57,East,80,1.0,5.0,79,0.00,,,0.00,65,Wunderground v.1.15,2013-03-15 21:26:00,
2013-03-15 17:31:00,31.2,25.7,29.56,ESE,107,2.0,2.0,80,0.00,,,0.00,86,Wunderground v.1.15,2013-03-15 21:31:00,
2013-03-15 17:37:00,31.2,25.4,29.56,East,95,1.0,4.0,79,0.00,,,0.00,60,Wunderground v.1.15,2013-03-15 21:37:00,
2013-03-15 17:42:00,31.3,25.5,29.56,ENE,65,1.0,2.0,79,0.00,,,0.00,40,Wunderground v.1.15,2013-03-15 21:42:00,
2013-03-15 17:48:00,31.3,25.2,29.56,ENE,65,1.0,4.0,78,0.00,,,0.00,95,Wunderground v.1.15,2013-03-15 21:48:00,
2013-03-15 17:53:00,31.5,25.4,29.56,ENE,65,0.0,1.0,78,0.00,,,0.00,63,Wunderground v.1.15,2013-03-15 21:53:00,
2013-03-15 17:58:00,31.6,25.5,29.56,ENE,65,0.0,2.0,78,0.00,,,0.00,21,Wunderground v.1.15,2013-03-15 21:58:00,
2013-03-15 18:03:00,31.6,25.2,29.56,ENE,67,1.0,3.0,77,0.00,,,0.00,39,Wunderground v.1.15,2013-03-15 22:03:00,
2013-03-15 18:09:00,31.5,25.4,29.56,ENE,66,1.0,3.0,78,0.00,,,0.00,30,Wunderground v.1.15,2013-03-15 22:09:00,
2013-03-15 18:16:00,31.3,25.2,29.56,ENE,66,1.0,2.0,78,0.00,,,0.00,25,Wunderground v.1.15,2013-03-15 22:16:00,
2013-03-15 18:21:00,31.3,25.5,29.56,East,80,1.0,3.0,79,0.00,,,0.00,47,Wunderground v.1.15,2013-03-15 22:21:00,
2013-03-15 18:26:00,31.3,25.8,29.56,ESE,103,1.0,3.0,80,0.00,,,0.00,26,Wunderground v.1.15,2013-03-15 22:26:00,
2013-03-15 18:32:00,31.2,26.0,29.56,ESE,103,0.0,1.0,81,0.00,,,0.00,14,Wunderground v.1.15,2013-03-15 22:32:00,
2013-03-15 18:37:00,31.0,26.1,29.56,NE,55,0.0,1.0,82,0.00,,,0.00,11,Wunderground v.1.15,2013-03-15 22:37:00,
2013-03-15 18:43:00,30.9,26.3,29.56,NE,55,0.0,0.0,83,0.00,,,0.00,7,Wunderground v.1.15,2013-03-15 22:43:00,
2013-03-15 18:49:00,30.7,26.4,29.56,NE,55,0.0,1.0,84,0.00,,,0.00,5,Wunderground v.1.15,2013-03-15 22:49:00,
2013-03-15 18:56:00,30.4,26.1,29.56,NE,55,0.0,0.0,84,0.00,,,0.00,0,Wunderground v.1.15,2013-03-15 22:56:00,
2013-03-15 19:01:00,30.3,26.0,29.55,NE,55,0.0,0.0,84,0.00,,,0.00,0,Wunderground v.1.15,2013-03-15 23:01:00,
2013-03-15 19:06:00,30.3,26.3,29.55,ENE,62,0.0,0.0,85,0.00,,,0.00,0,Wunderground v.1.15,2013-03-15 23:06:00,
2013-03-15 19:12:00,30.3,26.3,29.55,ENE,62,0.0,0.0,85,0.00,,,0.00,0,Wunderground v.1.15,2013-03-15 23:12:00,
2013-03-15 19:17:00,30.3,26.3,29.55,ENE,62,0.0,0.0,85,0.00,,,0.00,0,Wunderground v.1.15,2013-03-15 23:17:00,
2013-03-15 19:22:00,30.3,26.6,29.55,ENE,63,0.0,0.0,86,0.00,,,0.00,0,Wunderground v.1.15,2013-03-15 23:22:00,
2013-03-15 19:28:00,30.4,26.7,29.55,ENE,63,0.0,0.0,86,0.00,,,0.00,0,Wunderground v.1.15,2013-03-15 23:28:00,
2013-03-15 19:34:00,30.4,26.7,29.56,SE,141,0.0,2.0,86,0.00,,,0.00,0,Wunderground v.1.15,2013-03-15 23:34:00,
2013-03-15 19:41:00,30.4,26.7,29.56,East,83,1.0,1.0,86,0.00,,,0.00,0,Wunderground v.1.15,2013-03-15 23:41:00,
2013-03-15 19:46:00,30.4,26.7,29.59,ENE,75,1.0,2.0,86,0.00,,,0.00,0,Wunderground v.1.15,2013-03-15 23:46:00,
2013-03-15 19:51:00,30.4,27.0,29.59,ENE,75,1.0,1.0,87,0.00,,,0.00,0,Wunderground v.1.15,2013-03-15 23:51:00,
2013-03-15 19:57:00,30.6,27.5,29.59,ENE,75,0.0,1.0,88,0.00,,,0.00,0,Wunderground v.1.15,2013-03-15 23:57:00,
2013-03-15 20:03:00,30.6,27.5,29.61,East,100,0.0,0.0,88,0.00,,,0.00,0,Wunderground v.1.15,2013-03-16 00:03:00,
2013-03-15 20:08:00,30.3,27.2,29.61,North,0,0.0,0.0,88,0.00,,,0.00,0,Wunderground v.1.15,2013-03-16 00:08:00,
2013-03-15 20:14:00,30.1,27.3,29.61,East,98,0.0,0.0,89,0.00,,,0.00,0,Wunderground v.1.15,2013-03-16 00:14:00,
2013-03-15 20:19:00,30.0,27.2,29.61,East,98,0.0,0.0,89,0.00,,,0.00,0,Wunderground v.1.15,2013-03-16 00:19:00,
2013-03-15 20:26:00,29.8,27.0,29.61,East,98,0.0,0.0,89,0.00,,,0.00,0,Wunderground v.1.15,2013-03-16 00:26:00,
2013-03-15 20:31:00,29.7,26.9,29.62,East,98,0.0,0.0,89,0.00,,,0.00,0,Wunderground v.1.15,2013-03-16 00:31:00,
2013-03-15 20:37:00,29.7,26.9,29.62,East,98,0.0,0.0,89,0.00,,,0.00,0,Wunderground v.1.15,2013-03-16 00:37:00,
2013-03-15 20:42:00,29.7,26.9,29.62,East,98,0.0,0.0,89,0.00,,,0.00,0,Wunderground v.1.15,2013-03-16 00:42:00,
2013-03-15 20:48:00,29.5,26.7,29.63,East,98,0.0,1.0,89,0.00,,,0.00,0,Wunderground v.1.15,2013-03-16 00:48:00,
2013-03-15 20:53:00,29.3,26.5,29.63,East,98,0.0,0.0,89,0.00,,,0.00,0,Wunderground v.1.15,2013-03-16 00:53:00,
2013-03-15 20:58:00,29.0,26.2,29.63,East,98,0.0,2.0,89,0.00,,,0.00,0,Wunderground v.1.15,2013-03-16 00:58:00,
2013-03-15 21:04:00,28.7,25.9,29.63,East,98,0.0,0.0,89,0.00,,,0.00,0,Wunderground v.1.15,2013-03-16 01:04:00,
2013-03-15 21:09:00,28.5,25.4,29.63,East,98,0.0,0.0,88,0.00,,,0.00,0,Wunderground v.1.15,2013-03-16 01:09:00,
2013-03-15 21:14:00,28.2,25.1,29.63,East,98,0.0,0.0,88,0.00,,,0.00,0,Wunderground v.1.15,2013-03-16 01:14:00,
2013-03-15 21:21:00,27.9,24.8,29.64,East,98,0.0,0.0,88,0.00,,,0.00,0,Wunderground v.1.15,2013-03-16 01:21:00,
2013-03-15 21:26:00,27.8,24.7,29.64,East,98,0.0,0.0,88,0.00,,,0.00,0,Wunderground v.1.15,2013-03-16 01:26:00,
2013-03-15 21:31:00,27.6,24.2,29.65,East,98,0.0,0.0,87,0.00,,,0.00,0,Wunderground v.1.15,2013-03-16 01:31:00,
2013-03-15 21:37:00,27.5,24.1,29.65,East,98,0.0,1.0,87,0.00,,,0.00,0,Wunderground v.1.15,2013-03-16 01:37:00,
2013-03-15 21:42:00,27.3,23.9,29.65,East,98,0.0,0.0,87,0.00,,,0.00,0,Wunderground v.1.15,2013-03-16 01:42:00,
2013-03-15 21:47:00,27.2,23.8,29.66,East,98,0.0,0.0,87,0.00,,,0.00,0,Wunderground v.1.15,2013-03-16 01:47:00,
2013-03-15 21:53:00,27.2,23.8,29.66,East,98,0.0,0.0,87,0.00,,,0.00,0,Wunderground v.1.15,2013-03-16 01:53:00,
2013-03-15 21:59:00,27.0,23.6,29.66,East,98,0.0,0.0,87,0.00,,,0.00,0,Wunderground v.1.15,2013-03-16 01:59:00,
2013-03-15 22:04:00,27.0,23.6,29.66,East,98,0.0,0.0,87,0.00,,,0.00,0,Wunderground v.1.15,2013-03-16 02:04:00,
2013-03-15 22:11:00,27.0,23.6,29.66,East,98,0.0,0.0,87,0.00,,,0.00,0,Wunderground v.1.15,2013-03-16 02:11:00,
2013-03-15 22:16:00,27.0,23.6,29.67,East,98,0.0,0.0,87,0.00,,,0.00,0,Wunderground v.1.15,2013-03-16 02:16:00,
2013-03-15 22:21:00,26.9,23.5,29.67,East,98,0.0,0.0,87,0.00,,,0.00,0,Wunderground v.1.15,2013-03-16 02:21:00,
2013-03-15 22:27:00,26.7,23.1,29.67,East,101,0.0,0.0,86,0.00,,,0.00,0,Wunderground v.1.15,2013-03-16 02:27:00,
2013-03-15 22:33:00,26.7,23.1,29.68,South,180,0.0,0.0,86,0.00,,,0.00,0,Wunderground v.1.15,2013-03-16 02:33:00,
2013-03-15 22:38:00,26.9,23.3,29.68,South,179,0.0,0.0,86,0.00,,,0.00,0,Wunderground v.1.15,2013-03-16 02:38:00,
2013-03-15 22:44:00,26.9,23.0,29.68,South,180,0.0,0.0,85,0.00,,,0.00,0,Wunderground v.1.15,2013-03-16 02:44:00,
2013-03-15 22:49:00,26.9,22.7,29.69,South,180,0.0,0.0,84,0.00,,,0.00,0,Wunderground v.1.15,2013-03-16 02:49:00,
2013-03-15 22:54:00,26.9,22.4,29.69,South,180,0.0,0.0,83,0.00,,,0.00,0,Wunderground v.1.15,2013-03-16 02:54:00,
2013-03-15 23:01:00,26.9,22.4,29.69,South,180,0.0,0.0,83,0.00,,,0.00,0,Wunderground v.1.15,2013-03-16 03:01:00,
2013-03-15 23:06:00,26.9,22.4,29.69,South,180,0.0,0.0,83,0.00,,,0.00,0,Wunderground v.1.15,2013-03-16 03:06:00,
2013-03-15 23:12:00,27.0,22.2,29.69,NW,308,0.0,1.0,82,0.00,,,0.00,0,Wunderground v.1.15,2013-03-16 03:12:00,
2013-03-15 23:17:00,27.0,22.2,29.70,North,358,1.0,1.0,82,0.00,,,0.00,0,Wunderground v.1.15,2013-03-16 03:17:00,
2013-03-15 23:22:00,26.9,22.1,29.70,West,279,0.0,1.0,82,0.00,,,0.00,0,Wunderground v.1.15,2013-03-16 03:22:00,
2013-03-15 23:28:00,26.7,21.7,29.70,South,169,0.0,1.0,81,0.00,,,0.00,0,Wunderground v.1.15,2013-03-16 03:28:00,
2013-03-15 23:34:00,26.6,21.3,29.70,South,169,0.0,0.0,80,0.00,,,0.00,0,Wunderground v.1.15,2013-03-16 03:34:00,
2013-03-15 23:41:00,26.4,21.1,29.70,South,169,0.0,0.0,80,0.00,,,0.00,0,Wunderground v.1.15,2013-03-16 03:41:00,
2013-03-15 23:46:00,26.3,21.3,29.71,South,169,0.0,0.0,81,0.00,,,0.00,0,Wunderground v.1.15,2013-03-16 03:46:00,
2013-03-15 23:52:00,26.3,21.3,29.71,South,169,0.0,0.0,81,0.00,,,0.00,0,Wunderground v.1.15,2013-03-16 03:52:00,
2013-03-15 23:57:00,26.3,21.3,29.71,South,169,0.0,0.0,81,0.00,,,0.00,0,Wunderground v.1.15,2013-03-16 03:57:00,